Year,Month,Day,Hour,Minute,Value (Times are PST for windspeed in km/hr)
2008,12,29,12,18,8.10
2008,12,29,12,19,20.10
2008,12,29,12,20,27.90
2008,12,29,12,21,32.70
2008,12,29,12,22,26.90
2008,12,29,12,23,31.10
2008,12,29,12,24,30.20
2008,12,29,12,25,23.70
2008,12,29,12,26,28.80
2008,12,29,12,27,31.60
2008,12,29,12,28,31.60
2008,12,29,12,29,27.00
2008,12,29,12,30,29.40
2008,12,29,12,31,27.20
2008,12,29,12,32,35.10
2008,12,29,12,33,37.90
2008,12,29,12,34,29.40
2008,12,29,12,35,28.50
2008,12,29,12,36,27.70
2008,12,29,12,37,30.50
2008,12,29,12,38,26.30
2008,12,29,12,39,25.80
2008,12,29,12,40,21.60
2008,12,29,12,41,26.50
2008,12,29,12,42,23.50
2008,12,29,12,43,19.60
2008,12,29,12,44,28.00
2008,12,29,12,45,30.00
2008,12,29,12,46,21.30
2008,12,29,12,47,28.50
2008,12,29,12,48,30.60
2008,12,29,12,49,23.50
2008,12,29,12,50,43.20
2008,12,29,12,51,43.20
2008,12,29,12,52,33.70
2008,12,29,12,53,31.90
2008,12,29,12,54,33.50
2008,12,29,12,55,27.00
2008,12,29,12,56,25.70
2008,12,29,12,57,38.40
2008,12,29,12,58,28.70
2008,12,29,12,59,33.10
2008,12,29,13,00,33.40
2008,12,29,13,01,32.60
2008,12,29,13,02,29.70
2008,12,29,13,03,21.70
2008,12,29,13,04,24.90
2008,12,29,13,05,34.10
2008,12,29,13,06,21.30
2008,12,29,13,07,25.70
2008,12,29,13,08,22.70
2008,12,29,13,09,26.90
2008,12,29,13,10,24.10
2008,12,29,13,11,31.50
2008,12,29,13,12,31.90
2008,12,29,13,13,27.10
2008,12,29,13,14,20.00
2008,12,29,13,15,26.50
2008,12,29,13,16,26.40
2008,12,29,13,17,20.60
2008,12,29,13,18,16.20
2008,12,29,13,19,23.80
2008,12,29,13,20,21.30
2008,12,29,13,21,31.60
2008,12,29,13,22,20.60
2008,12,29,13,23,21.00
2008,12,29,13,24,39.10
2008,12,29,13,25,26.80
2008,12,29,13,26,17.80
2008,12,29,13,27,24.60
2008,12,29,13,28,22.50
2008,12,29,13,29,25.60
2008,12,29,13,30,20.00
2008,12,29,13,31,16.20
2008,12,29,13,32,19.70
2008,12,29,13,33,19.30
2008,12,29,13,34,18.70
2008,12,29,13,35,21.80
2008,12,29,13,36,19.50
2008,12,29,13,37,20.80
2008,12,29,13,38,19.70
2008,12,29,13,39,10.20
2008,12,29,13,40,13.10
2008,12,29,13,41,14.30
2008,12,29,13,42,10.40
2008,12,29,13,43,12.10
2008,12,29,13,44,14.20
2008,12,29,13,45,13.30
2008,12,29,13,46,13.60
2008,12,29,13,47,10.20
2008,12,29,13,48,18.50
2008,12,29,13,49,10.40
2008,12,29,13,50,23.50
2008,12,29,13,51,15.30
2008,12,29,13,52,5.90
2008,12,29,13,53,15.00
2008,12,29,13,54,24.30
2008,12,29,13,55,18.80
2008,12,29,13,56,16.20
2008,12,29,13,57,11.10
2008,12,29,13,58,9.30
2008,12,29,13,59,8.30
2008,12,29,14,00,10.30
2008,12,29,14,01,11.00
2008,12,29,14,02,19.50
2008,12,29,14,03,18.60
2008,12,29,14,04,12.80
2008,12,29,14,05,15.90
2008,12,29,14,06,19.30
2008,12,29,14,07,15.40
2008,12,29,14,08,12.60
2008,12,29,14,09,21.00
2008,12,29,14,10,29.00
2008,12,29,14,11,29.00
2008,12,29,14,12,29.00
2008,12,29,14,13,29.00
2008,12,29,14,14,29.00
2008,12,29,14,15,29.00
2008,12,29,14,16,29.00
2008,12,29,14,17,29.00
2008,12,29,14,18,29.00
2008,12,29,14,19,29.00
